Flag Weather past 2 weeks in Stange, Norway

Now
32 °F

Chilly.


Feels Like: 32 °F
Forecast: 25 / 33 °F
Wind: 1 mph from Northeast

Location: Haugedalshogda

Current Time: Nov 25, 2014 at 12:02:48 AM

Latest Report: Nov 24, 2014 at 11:00 PM


Visibility: N/A

Pressure: 29.96 "Hg

Humidity: 96%

Dew point: 31 °F

Location of StangeLocation

Historic Weather in Stange — Graph

°F

Stange temperature yesterday

Maximum temperature yesterday: 34 °F (at 8:00 PM)
Minimum temperature yesterday: 32 °F (at 11:00 PM)
Average temperature yesterday: 33 °F

Past Weeks' High & Low Weather Summary

 TemperatureHumidityPressure
High45 °F (Nov 9, 11:00 PM)97% (Nov 19, 1:00 PM)30.58 "Hg (Nov 19, 1:00 PM)
Low24 °F (Nov 22, 5:00 AM)85% (Nov 13, 1:00 PM)29.72 "Hg (Nov 10, 11:00 PM)
Average34 °F94%30.25 "Hg
* Reported Nov 9 11:00 PM — Nov 24 11:00 PM, Stange, Weather by CustomWeather, © 2014

Note: Actual official high and low records may vary slightly from our data, if they occured in-between our weather recording intervals... More about our weather records

Advertising

Stange weather history for previous 24 hours

 ConditionsComfort  
Time TempWeatherWind HumidityBarometerVisibility
11:00 PM
Nov 24
32 °FChilly.1 mph96%29.96 "HgN/A
9:00 PM33 °FChilly.No wind96%29.90 "HgN/A
8:00 PM34 °FChilly.3 mph96%29.87 "HgN/A
7:00 PM33 °FChilly.3 mph96%29.84 "HgN/A
6:00 PM33 °FChilly.2 mph96%29.82 "HgN/A
5:00 PM33 °FChilly.2 mph96%29.79 "HgN/A
4:00 PM33 °FChilly.5 mph96%29.77 "HgN/A
3:00 PM33 °FChilly.3 mph96%29.76 "HgN/A
2:00 PM33 °FChilly.3 mph96%29.75 "HgN/A
1:00 PM33 °FChilly.5 mph96%29.75 "HgN/A
12:00 PM33 °FChilly.6 mph96%29.76 "HgN/A
11:00 AM33 °FChilly.5 mph96%29.76 "HgN/A
10:00 AM32 °FChilly.3 mph97%29.77 "HgN/A
9:00 AM32 °FChilly.2 mph96%29.77 "HgN/A
8:00 AM32 °FChilly.2 mph96%29.78 "HgN/A
7:00 AM32 °FChilly.2 mph96%29.78 "HgN/A
6:00 AM32 °FChilly.2 mph96%29.79 "HgN/A
5:00 AM32 °FChilly.1 mph96%29.81 "HgN/A
4:00 AM32 °FChilly.1 mph96%29.84 "HgN/A
3:00 AM32 °FChilly.1 mph96%29.87 "HgN/A
2:00 AM32 °FChilly.1 mph96%29.90 "HgN/A
1:00 AM32 °FChilly.1 mph96%29.94 "HgN/A
12:00 AM32 °FChilly.1 mph96%29.97 "HgN/A
Weather by CustomWeather, © 2014

See weather overviewHow to use our weather pages